Weather observations for the past three days for
Falfurrias, Brooks County Airport
Imperial (Metric)
Date Time (cdt) Wind (mph) Vis. (mi.) Weather Sky Cond. Temperature (ºF) Relative Humidity Wind Chill (°F) Heat Index (°F) Pressure Precipitation (in)
Air Dwpt 6 hour altimeter (in) sea level (mb) 1 hr 3 hr 6 hr
Max. Min.
15 20:55 E 9 10.00 Fair CLR 86 75.9 72% 96 29.8 1005.2
15 20:35 E 10 9.00 Fair CLR 86.7 75.4 69% 96 29.8 1005.2
15 20:15 SE 14 G 20 10.00 Fair CLR 87.8 74.1 64% 97 29.8 1005.0
15 19:55 E 12 9.00 Fair CLR 89.2 73.8 60% 98 29.79 1004.8
15 19:35 SE 13 G 22 10.00 Fair CLR 90 72.7 57% 98 29.79 1004.8
15 19:15 E 13 10.00 Fair CLR 91.4 70.2 50% 97 29.78 1004.5
15 18:55 E 15 G 23 10.00 Fair CLR 92.7 69.8 98.2 92.7 47% 98 29.78 1004.4
15 18:35 E 15 G 23 10.00 Fair CLR 93.6 69.4 45% 99 29.77 1004.3
15 18:15 SE 14 G 23 10.00 Fair CLR 94.3 69.3 44% 100 29.77 1004.3
15 17:55 SE 17 G 23 10.00 Fair CLR 95 69.6 44% 101 29.77 1004.3
15 17:35 E 13 G 21 10.00 A Few Clouds FEW060 95.7 69.4 42% 102 29.77 1004.2
15 17:15 E 15 G 23 10.00 A Few Clouds FEW060 95.2 70.2 44% 102 29.78 1004.4
15 16:55 SE 12 G 22 10.00 A Few Clouds FEW060 97.5 71.1 42% 106 29.78 1004.6
15 16:35 E 15 G 22 10.00 Partly Cloudy SCT060 96.4 71.2 44% 104 29.79 1004.7
15 16:15 SE 15 G 22 10.00 A Few Clouds FEW055 96.3 71.8 45% 105 29.79 1004.8
15 15:55 E 13 G 22 10.00 Mostly Cloudy BKN060 95.2 72.7 48% 104 29.8 1005.1
15 15:35 SE 14 10.00 Mostly Cloudy BKN060 95.9 71.4 45% 104 29.8 1005.1
15 15:15 SE 10 G 21 10.00 Partly Cloudy SCT060 SCT075 97.7 70.7 42% 105 29.8 1005.2
15 14:55 E 8 10.00 Mostly Cloudy BKN060 96.1 71.2 45% 104 29.81 1005.6
15 14:35 E 9 10.00 Mostly Cloudy BKN060 BKN075 BKN100 96.1 70.7 44% 103 29.81 1005.7
15 14:15 SE 7 10.00 Partly Cloudy FEW055 SCT320 SCT380 97.9 71.4 43% 106 29.82 1006.0
15 13:55 E 9 10.00 Partly Cloudy FEW240 SCT340 97.5 71.6 43% 106 29.83 1006.3
15 13:35 E 8 10.00 Partly Cloudy FEW240 SCT350 SCT380 96.3 71.8 45% 105 29.84 1006.6
15 12:35 Calm 10.00 Partly Cloudy FEW050 SCT065 92.7 72.5 52% 101 29.86 1007.2
15 12:15 E 6 10.00 A Few Clouds FEW049 93.2 72.7 51% 102 29.87 1007.5
15 11:55 S 8 10.00 Partly Cloudy SCT041 92.7 72.9 53% 101 29.88 1007.7
15 11:35 S 8 10.00 Partly Cloudy SCT041 91.6 74.5 57% 102 29.88 1007.9
15 11:15 Vrbl 3 10.00 A Few Clouds FEW350 91.4 74.3 57% 101 29.88 1008.0
15 10:55 Vrbl 6 10.00 A Few Clouds FEW300 89.4 75.6 64% 100 29.89 1008.2
15 10:35 SE 8 10.00 Partly Cloudy SCT029 SCT036 89.2 75.9 65% 101 29.89 1008.3
15 10:15 Vrbl 3 10.00 Mostly Cloudy SCT028 BKN037 88.3 77.2 70% 101 29.89 1008.4
15 09:55 SE 5 10.00 Partly Cloudy SCT025 86.5 77.5 75% 99 29.9 1008.5
15 09:35 SE 7 10.00 Partly Cloudy SCT024 85.6 77.5 77% 97 29.9 1008.5
15 09:15 S 7 10.00 A Few Clouds FEW019 85.1 78.3 80% 97 29.9 1008.5
15 08:55 S 5 10.00 Fair CLR 83.7 78.8 85% 95 29.89 1008.3
15 08:35 Calm 10.00 A Few Clouds FEW024 82.8 78.4 87% 93 29.89 1008.2
15 08:15 Calm 8.00 Partly Cloudy SCT023 81.1 77.9 90% 89 29.89 1008.1
15 07:55 Calm 10.00 A Few Clouds FEW024 78.4 77.4 97% 82 29.88 1008.0
15 07:35 Calm 9.00 A Few Clouds FEW023 77.4 76.5 97% 79 29.88 1007.9
15 07:15 Calm 9.00 Fair CLR 76.1 75.6 98% 75 29.87 1007.7
15 06:55 Calm 9.00 A Few Clouds FEW019 75.9 75.6 79.5 75.7 99% 75 29.87 1007.6
15 06:35 Calm 6.00 Fog/Mist CLR 76.1 75.6 98% 75 29.87 1007.6
15 06:15 SW 3 8.00 Fair CLR 75.7 75.2 98% 74 29.87 1007.5
15 05:55 Calm 8.00 Partly Cloudy SCT022 76.3 75.4 97% 76 29.87 1007.5
15 05:35 Calm 8.00 Mostly Cloudy BKN021 76.8 75.6 96% 77 29.87 1007.5
15 05:15 Calm 9.00 Fair CLR 76.5 75.2 96% 76 29.86 1007.3
15 04:55 W 3 9.00 Fair CLR 77 75.4 95% 78 29.87 1007.4
15 04:35 Calm 9.00 Fair CLR 77 75.4 95% 78 29.87 1007.4
15 04:15 Calm 9.00 Fair CLR 77 75.4 95% 78 29.87 1007.5
15 03:55 Calm 10.00 Fair CLR 77.2 75.4 94% 78 29.87 1007.6
15 03:35 Calm 10.00 Fair CLR 77 75.2 94% 78 29.87 1007.7
15 03:15 NE 5 10.00 Fair CLR 77 75.2 94% 78 29.87 1007.7
15 02:55 E 3 10.00 Fair CLR 77.5 75.4 93% 79 29.88 1008.0
15 02:35 NE 3 10.00 Fair CLR 78.3 75.4 91% 81 29.89 1008.1
15 02:15 E 3 10.00 Fair CLR 78.4 75.6 91% 82 29.89 1008.2
15 01:55 NE 3 10.00 Fair CLR 78.4 75.6 91% 82 29.89 1008.3
15 01:35 Calm 10.00 Fair CLR 79 75.4 89% 83 29.9 1008.5
15 01:15 Calm 10.00 Fair CLR 79.5 75.9 89% 84 29.9 1008.5
15 00:55 E 3 10.00 Fair CLR 79.7 75.7 92.8 79.7 88% 85 29.9 1008.5
15 00:35 SE 3 10.00 Fair CLR 80.1 75.7 87% 85 29.9 1008.5
15 00:15 E 3 10.00 Fair CLR 80.2 75.9 87% 86 29.9 1008.5
14 23:55 E 3 10.00 Fair CLR 80.6 75.9 86% 87 29.9 1008.5
14 23:35 E 5 10.00 Fair CLR 81.1 75.9 84% 88 29.89 1008.3
14 23:15 E 3 10.00 Fair CLR 81.7 76.1 83% 89 29.89 1008.2
14 22:55 E 3 10.00 Fair CLR 82.6 76.3 81% 91 29.88 1008.0
14 22:35 E 5 10.00 Fair CLR 82.9 76.6 81% 92 29.88 1007.8
14 22:15 E 3 10.00 Fair CLR 84 77.4 80% 94 29.87 1007.7
14 21:55 E 7 10.00 Fair CLR 84.7 77.2 78% 95 29.87 1007.4
14 21:35 SE 8 10.00 Fair CLR 85.1 77.2 77% 96 29.86 1007.3
14 21:15 E 9 10.00 Fair CLR 85.8 77.4 76% 97 29.86 1007.1
14 20:55 E 13 G 17 10.00 Fair CLR 86.7 77.5 74% 99 29.85 1007.0
14 20:35 E 8 10.00 Fair CLR 87.3 76.5 70% 98 29.85 1006.8
14 20:15 E 9 10.00 Fair CLR 88.5 74.7 64% 98 29.84 1006.6
14 19:55 Calm 9.00 Fair CLR 90.1 74.3 60% 100 29.84 1006.5
14 19:35 E 9 10.00 Fair CLR 90.9 73.9 58% 100 29.83 1006.2
14 19:15 E 13 10.00 Fair CLR 92.1 72 52% 100 29.83 1006.1
14 18:55 E 14 10.00 Fair CLR 93 71.6 100.6 93 50% 101 29.82 1005.9
14 18:35 E 13 G 21 10.00 Fair CLR 94.3 70.7 46% 101 29.82 1005.8
14 18:15 E 14 10.00 A Few Clouds FEW055 94.5 72.5 49% 103 29.81 1005.7
14 17:55 E 16 10.00 A Few Clouds FEW060 96.8 71.4 44% 105 29.81 1005.5
14 17:35 E 15 G 22 10.00 A Few Clouds FEW060 97 69.4 41% 103 29.81 1005.5
14 17:15 E 12 10.00 Fair CLR 97.2 68.7 40% 103 29.81 1005.6
14 16:55 E 15 G 20 10.00 Fair CLR 97.9 69.1 39% 104 29.81 1005.6
14 16:35 E 14 G 22 10.00 Fair CLR 97.9 69.3 39% 104 29.81 1005.7
14 16:15 E 16 G 22 10.00 Fair CLR 98.8 69.6 39% 106 29.82 1005.8
14 15:55 E 15 G 23 10.00 A Few Clouds FEW065 100 69.3 37% 107 29.82 1005.9
14 15:35 NE 12 G 20 10.00 Partly Cloudy SCT065 98.8 69.6 39% 106 29.82 1006.0
14 15:15 E 9 10.00 A Few Clouds FEW085 97.9 70.2 41% 105 29.83 1006.2
14 14:55 E 9 10.00 Mostly Cloudy BKN065 BKN080 97 70.2 42% 104 29.84 1006.4
14 14:35 E 7 G 16 10.00 Mostly Cloudy BKN065 97.2 69.8 41% 104 29.84 1006.7
14 14:15 Vrbl 3 10.00 Partly Cloudy SCT065 SCT080 98.8 68.7 38% 105 29.85 1006.8
14 13:55 Calm 10.00 Partly Cloudy FEW240 SCT320 SCT340 SCT370 97 69.6 41% 104 29.86 1007.2
14 13:35 E 8 10.00 Mostly Cloudy FEW060 SCT270 BKN370 99.3 70.7 40% 107 29.86 1007.2
14 13:15 S 5 10.00 Partly Cloudy FEW080 SCT370 96.3 72 46% 105 29.87 1007.4
14 12:55 SE 6 10.00 Partly Cloudy SCT065 SCT080 93.2 72.7 94.5 76.6 51% 102 29.88 1007.9
14 12:35 SE 7 10.00 Partly Cloudy SCT065 SCT380 93.7 72.9 51% 103 29.88 1008.0
14 12:15 Vrbl 5 10.00 Partly Cloudy SCT055 92.7 73.4 54% 102 29.89 1008.1
14 11:55 E 7 10.00 A Few Clouds FEW041 92.8 73.4 53% 102 29.89 1008.4
14 11:35 Vrbl 5 10.00 Partly Cloudy FEW040 SCT055 91.2 74.1 57% 101 29.9 1008.5
14 11:15 E 6 10.00 A Few Clouds FEW290 90.7 74.3 59% 101 29.91 1008.8
14 10:55 SE 6 10.00 Partly Cloudy FEW036 SCT290 SCT330 90.5 74.1 59% 100 29.91 1009.0
14 10:35 Vrbl 3 10.00 A Few Clouds FEW035 89.2 74.8 63% 99 29.92 1009.2
14 10:15 E 5 10.00 A Few Clouds FEW029 86.9 77 72% 99 29.92 1009.4
14 09:55 Vrbl 5 10.00 Partly Cloudy SCT028 87.1 77 72% 99 29.93 1009.6
14 09:35 S 3 10.00 Partly Cloudy SCT026 86.7 78.1 76% 100 29.93 1009.5
14 09:15 Vrbl 3 10.00 A Few Clouds FEW019 85.6 77.9 78% 98 29.92 1009.3
14 08:55 Calm 10.00 Fair CLR 84.6 79 83% 97 29.92 1009.2
14 08:35 Calm 10.00 Fair CLR 83.3 79.2 87% 95 29.92 1009.1
14 08:15 Calm 10.00 Fair CLR 82 79 90% 92 29.92 1009.1
14 07:55 Calm 10.00 Fair CLR 79.2 78.1 97% 84 29.91 1008.9
14 07:35 Calm 10.00 Fair CLR 77.7 77.5 99% 80 29.91 1008.9
14 07:15 Calm 10.00 Fair CLR 76.8 76.8 100% 77 29.9 1008.7
14 06:55 Calm 10.00 Fair CLR 76.3 76.3 81.3 76.1 100% 76 29.9 1008.4
14 06:35 Calm 10.00 Fair CLR 76.1 76.1 100% 75 29.9 1008.4
14 06:15 Calm 10.00 Mostly Cloudy BKN021 76.6 76.6 100% 77 29.89 1008.3
14 05:55 Calm 10.00 Partly Cloudy SCT022 76.6 76.6 100% 77 29.89 1008.1
14 05:35 Calm 10.00 Fair CLR 76.3 76.3 100% 76 29.88 1007.9
14 05:15 Calm 10.00 Fair CLR 76.5 76.5 100% 76 29.87 1007.7
14 04:55 Calm 10.00 Fair CLR 77 77 100% 78 29.87 1007.7
14 04:35 E 3 10.00 Fair CLR 76.8 76.8 100% 77 29.87 1007.7
14 04:15 E 3 10.00 Fair CLR 77 76.8 99% 78 29.88 1007.7
14 03:55 Calm 10.00 Fair CLR 77.9 77.2 98% 80 29.87 1007.7
14 03:35 Calm 10.00 Fair CLR 78.1 77.2 97% 81 29.87 1007.7
14 03:15 E 3 10.00 Fair CLR 78.6 77.2 95% 82 29.88 1007.8
14 02:55 SE 3 10.00 Fair CLR 79.3 77.5 94% 84 29.88 1007.8
14 02:35 SE 3 10.00 Fair CLR 79.7 77.5 93% 85 29.87 1007.7
14 02:15 SE 3 10.00 Fair CLR 79.9 77.7 93% 86 29.88 1007.8
14 01:55 S 5 10.00 Fair CLR 80.4 77.5 91% 87 29.88 1007.8
14 01:35 S 3 10.00 Fair CLR 80.8 77.2 89% 88 29.88 1007.9
14 01:15 Calm 10.00 Fair CLR 81 77.7 90% 88 29.89 1008.1
14 00:55 Calm 9.00 Fair CLR 81.3 77.7 94.6 81.3 89% 89 29.89 1008.2
14 00:35 E 3 10.00 Fair CLR 81.7 77.9 88% 90 29.89 1008.1
14 00:15 SE 3 9.00 Fair CLR 82 78.1 88% 91 29.89 1008.1
13 23:55 SE 3 9.00 Fair CLR 82.6 78.4 87% 92 29.89 1008.1
13 23:35 SE 3 9.00 Fair CLR 82.8 78.3 86% 93 29.89 1008.1
13 23:15 E 6 10.00 Fair CLR 83.3 78.1 84% 94 29.89 1008.2
13 22:55 SE 6 9.00 Fair CLR 83.8 77.7 82% 94 29.88 1007.9
13 22:35 E 6 10.00 Fair CLR 84.4 77.2 79% 95 29.87 1007.7
13 22:15 SE 6 10.00 Fair CLR 84.9 76.8 77% 95 29.87 1007.5
13 21:55 E 7 10.00 Fair CLR 85.5 76.6 75% 96 29.87 1007.5
13 21:35 E 9 10.00 Fair CLR 85.8 76.6 74% 96 29.87 1007.4
13 21:15 SE 10 10.00 Fair CLR 86.4 76.6 73% 97 29.86 1007.2
13 20:55 E 12 10.00 Fair CLR 87.4 75 67% 97 29.86 1007.1
13 20:35 E 9 10.00 Fair CLR 88 75 66% 98 29.85 1006.9
13 20:15 E 12 9.00 Fair CLR 89.2 75.2 63% 100 29.84 1006.6
13 19:55 E 13 10.00 Fair CLR 91.2 74.3 58% 101 29.83 1006.2
13 19:35 E 13 8.00 Fair CLR 92.3 73.9 55% 102 29.82 1006.0
13 19:15 E 14 G 21 9.00 Fair CLR 93.7 72.9 51% 103 29.82 1005.8
13 18:55 E 14 G 20 10.00 Fair CLR 96.1 72 101.8 94.3 46% 105 29.81 1005.4
13 18:35 E 15 G 21 10.00 Fair CLR 96.4 71.6 45% 105 29.81 1005.5
13 18:15 E 13 G 20 9.00 Fair CLR 97 72.1 45% 106 29.81 1005.4
13 17:55 E 13 G 21 10.00 Fair CLR 98.2 71.2 42% 107 29.8 1005.3
13 17:35 E 12 10.00 Fair CLR 99.1 71.6 41% 108 29.8 1005.3
13 17:15 E 8 G 20 8.00 A Few Clouds FEW060 99.5 72.1 41% 109 29.81 1005.4
13 16:55 NE 10 9.00 Fair CLR 98.4 72 43% 108 29.81 1005.5
13 16:35 NE 12 10.00 Fair CLR 99.5 71.2 40% 108 29.81 1005.6
13 16:15 E 12 10.00 Partly Cloudy FEW065 SCT080 98.4 72.1 43% 108 29.82 1005.9
13 15:55 E 17 G 24 5.00 Mostly Cloudy with Haze BKN075 BKN100 97.9 73.2 45% 108 29.82 1006.0
13 15:35 NE 6 1.75 Partly Cloudy with Haze FEW070 SCT100 99.7 68.7 37% 106 29.83 1006.1
13 15:15 N 5 10.00 A Few Clouds FEW080 99.5 69.1 37% 106 29.83 1006.3
13 14:55 NE 8 1.75 Mostly Cloudy with Haze SCT070 BKN090 97.7 68.9 39% 104 29.84 1006.6
13 14:35 Calm 5.00 Mostly Cloudy with Haze BKN065 97.3 69.3 40% 104 29.84 1006.7
13 14:15 S 9 4.00 Mostly Cloudy with Haze BKN070 97.3 69.4 40% 104 29.85 1007.0
13 13:55 Calm 10.00 Mostly Cloudy FEW070 SCT280 BKN320 BKN350 BKN370 97 70.2 42% 104 29.87 1007.4
13 13:35 SE 7 2.00 Mostly Cloudy with Haze FEW060 SCT320 SCT340 BKN370 98.1 70.5 41% 106 29.87 1007.5
13 13:15 SE 9 10.00 Mostly Cloudy BKN060 BKN240 96.6 70.5 43% 104 29.88 1007.8
13 12:55 Vrbl 5 3.00 Partly Cloudy with Haze SCT055 95.7 71.1 95.7 76.6 45% 103 29.88 1008.0
13 12:35 Vrbl 5 1.75 A Few Clouds with Haze FEW370 94.3 70.7 46% 101 29.89 1008.2
13 12:15 Vrbl 3 3.00 A Few Clouds with Haze FEW095 94.6 71.1 46% 102 29.89 1008.4
13 11:55 Calm 10.00 A Few Clouds FEW042 91.9 73.6 55% 101 29.9 1008.5
13 11:35 SE 8 1.50 A Few Clouds with Haze FEW041 92.3 73.8 55% 102 29.9 1008.7
13 11:15 SE 5 1.25 Partly Cloudy with Haze FEW039 SCT370 91.4 73.9 57% 101 29.91 1008.8
13 10:55 S 9 5.00 A Few Clouds with Haze FEW034 90 73.4 58% 99 29.91 1008.9
13 10:35 Vrbl 3 10.00 Partly Cloudy FEW033 SCT340 90.3 75.6 62% 102 29.91 1009.0
13 10:15 S 6 4.00 A Few Clouds with Haze FEW031 88.9 76.1 66% 100 29.91 1009.0
13 09:55 S 9 10.00 Partly Cloudy SCT027 88.9 77.4 69% 102 29.91 1009.0
13 09:35 S 9 8.00 Partly Cloudy FEW021 SCT027 87.8 77.7 72% 101 29.91 1009.0
13 09:15 Calm 9.00 A Few Clouds FEW021 85.8 79 80% 99 29.91 1008.9
13 08:55 Calm 8.00 Fair CLR 83.7 78.8 85% 95 29.91 1008.9
13 08:35 Calm 10.00 Fair CLR 84.2 79.2 85% 97 29.9 1008.7
13 08:15 SE 5 10.00 Fair CLR 82.2 79.2 91% 92 29.9 1008.5
13 07:55 Calm 8.00 Fair CLR 79.9 78.3 95% 86 29.89 1008.1
13 07:35 Calm 10.00 Fair CLR 78.6 77.7 97% 82 29.88 1007.9
13 07:15 Calm 10.00 Fair CLR 77 77 100% 78 29.87 1007.7
13 06:55 Calm 10.00 A Few Clouds FEW026 76.6 76.6 80.1 76.6 100% 77 29.87 1007.5
13 06:35 Calm 10.00 Partly Cloudy SCT025 76.8 76.8 100% 77 29.87 1007.4
13 06:15 Calm 10.00 Mostly Cloudy BKN024 76.6 76.6 100% 77 29.86 1007.3
13 05:55 Calm 10.00 A Few Clouds FEW021 77 76.6 99% 78 29.86 1007.0
13 05:35 Calm 10.00 Partly Cloudy SCT021 77.2 76.8 99% 78 29.85 1007.0
13 05:15 Calm 10.00 Mostly Cloudy BKN020 77.9 77.2 98% 80 29.85 1007.0
13 04:55 Calm 10.00 A Few Clouds FEW019 77.7 77.2 98% 80 29.85 1006.9
13 04:35 SE 3 8.00 A Few Clouds FEW019 78.3 77.4 97% 81 29.85 1006.7
13 04:15 Calm 7.00 Fair CLR 78.3 77 96% 81 29.84 1006.7
13 03:55 SE 5 10.00 Fair CLR 78.8 77.2 95% 83 29.84 1006.6
13 03:35 S 6 10.00 Fair CLR 79.2 77.4 94% 84 29.84 1006.7
13 03:15 S 5 10.00 Fair CLR 79 77.2 94% 83 29.85 1006.8
13 02:55 SE 3 10.00 Fair CLR 79 76.8 93% 83 29.85 1007.0
13 02:35 SE 3 9.00 Fair CLR 79.3 76.8 92% 84 29.86 1007.2
13 02:15 SE 3 10.00 Fair CLR 79.3 76.5 91% 84 29.86 1007.3
13 01:55 SE 3 9.00 A Few Clouds FEW075 79.3 76.3 90% 84 29.87 1007.5
13 01:35 E 3 10.00 Fair CLR 79.3 76.1 90% 84 29.87 1007.7
13 01:15 SE 3 9.00 Fair CLR 79.5 76.1 89% 84 29.87 1007.7
13 00:55 SE 3 10.00 Fair CLR 80.2 76.3 92.5 80.2 88% 86 29.88 1007.8
13 00:35 E 3 10.00 Fair CLR 80.6 76.5 87% 87 29.88 1007.8
13 00:15 Calm 10.00 Fair CLR 81.1 76.3 85% 88 29.88 1007.9
12 23:55 Calm 10.00 Fair CLR 81.9 76.3 83% 89 29.88 1008.0
12 23:35 E 3 10.00 Fair CLR 82.2 76.5 83% 90 29.88 1007.9
12 23:15 SE 5 10.00 Fair CLR 82.9 76.1 80% 91 29.88 1007.8
12 22:55 SE 5 10.00 Fair CLR 83.5 76.1 79% 92 29.87 1007.7
12 22:35 E 5 10.00 Fair CLR 84.2 75.9 76% 93 29.87 1007.7
12 22:15 SE 5 10.00 Fair CLR 84.7 75.7 75% 94 29.86 1007.4
12 21:55 E 7 10.00 Fair CLR 85.5 75.6 72% 95 29.86 1007.2
12 21:35 E 5 10.00 Fair CLR 85.8 75.4 71% 95 29.85 1007.0
12 21:15 SE 7 10.00 Fair CLR 86.7 75.2 69% 96 29.85 1006.8
Date Time (cdt) Wind (mph) Vis. (mi.) Weather Sky Cond. Air Dwpt Max. Min. Relative Humidity Wind Chill (°F) Heat Index (°F) altimeter (in) sea level (mb) 1 hr 3 hr 6 hr
6 hour
Temperature (ºF) Pressure Precipitation (in)